User: anonymous   Login
Location: Unspecified
(0.0000°N, 0.0000°E)
Time: 11:17:37
(UTC+01:00)
Language:

ARIANE 5 R/B - Orbit

View from above orbital plane
View from above orbital plane
View from above satellite
View from above satellite

Ground track
Ground track

The orbit data is extracted from the following two-line orbital elements,

1 27387U 02009B   15085.47464047  .00000185  00000-0  78084-4 0  9998
2 27387 098.3558 043.8103 0033409 047.2229 091.6925 14.35818183684777
Epoch (UTC): 26 March 2015 11:23:28
Eccentricity: 0.0033409
inclination: 98.3558°
perigee height: 748 km
apogee height: 796 km
right ascension of ascending node: 43.8103°
argument of perigee: 47.2229°
revolutions per day: 14.35818183
mean anomaly at epoch: 91.6925°
orbit number at epoch: 68477

The dashed part of the orbit path shows where the satellite is in the earth's shadow,  

DLR